Flag for Colombia Weather past 2 weeks in Buenaventura, Colombia

Now
72 °F

Light rain. Broken clouds.


Feels Like: 69 °F
Forecast: N/A
Wind: 7 mph from Northeast

Location: Cali / Alfonso Bonillaaragon

Current Time: Mar 28, 2015 at 6:49:44 PM

Latest Report: Mar 28, 2015 at 6:00 PM


Visibility: 5 mi

Pressure: 29.97 "Hg

Humidity: 88%

Dew point: 68 °F

Location of BuenaventuraLocation

Historic Weather in Buenaventura — Graph

°F

Buenaventura temperature yesterday

Maximum temperature yesterday: 90 °F (at 2:00 PM)
Minimum temperature yesterday: 64 °F (at 1:00 AM)
Average temperature yesterday: 76 °F

Past Weeks' High & Low Weather Summary

 TemperatureHumidityPressure
High90 °F (Mar 15, 3:00 PM)100% (Mar 14, 3:00 AM)30.37 "Hg (Mar 14, 3:00 AM)
Low59 °F (Mar 21, 9:00 PM)41% (Mar 22, 2:00 PM)29.75 "Hg (Mar 13, 5:00 PM)
Average74 °F77%30.00 "Hg
* Reported Mar 13 5:00 PM — Mar 28 5:00 PM, Buenaventura, Weather by CustomWeather, © 2015

Note: Actual official high and low records may vary slightly from our data, if they occured in-between our weather recording intervals... More about our weather records

Advertising

Buenaventura weather history for previous 24 hours

 ConditionsComfort  
Time TempWeatherWind HumidityBarometerVisibility
5:00 PM
Sat, Mar 28
77 °FScattered showers. Broken clouds.9 mph69%29.97 "Hg6 mi
4:00 PM82 °FScattered showers. Broken clouds.9 mph55%29.95 "Hg6 mi
3:00 PM84 °FPartly sunny.2 mph55%29.96 "Hg6 mi
2:00 PM82 °FPartly sunny.5 mph58%29.99 "Hg6 mi
1:00 PM82 °FBroken clouds.5 mph62%30.02 "Hg6 mi
12:00 PM82 °FScattered clouds.3 mph62%30.06 "Hg6 mi
11:00 AM79 °FPartly sunny.5 mph65%30.10 "Hg6 mi
10:00 AM77 °FPartly sunny.6 mph74%30.12 "Hg6 mi
9:00 AM77 °FPartly sunny.3 mph69%30.11 "HgN/A
8:00 AM75 °FBroken clouds.3 mph74%30.09 "HgN/A
7:00 AM70 °FPartly sunny.5 mph88%30.05 "Hg6 mi
6:00 AM70 °FScattered showers. Passing clouds.3 mph88%30.04 "HgN/A
5:00 AM70 °FPassing clouds.3 mph88%30.02 "HgN/A
4:00 AM70 °FPassing clouds.5 mph88%30.00 "HgN/A
2:00 AM68 °FPassing clouds.3 mph88%30.00 "HgN/A
1:00 AM70 °FPassing clouds.2 mph88%30.02 "HgN/A
12:00 AM70 °FClear.7 mph88%30.02 "Hg10 mi
11:00 PM
Fri, Mar 27
72 °FClear.5 mph78%30.03 "Hg10 mi
10:00 PM73 °FPassing clouds.8 mph74%30.01 "HgN/A
9:00 PM75 °FPassing clouds.12 mph74%29.99 "HgN/A
8:00 PM75 °FPassing clouds.6 mph74%29.96 "HgN/A
7:00 PM77 °FPassing clouds.10 mph69%29.92 "HgN/A
6:00 PM81 °FScattered clouds.13 mph62%29.88 "HgN/A
Weather by CustomWeather, © 2015

See weather overviewHow to use our weather pages